Showing default

DTUSAT 2, 40030

Orbit data source: Space-Track

DTUSAT 2, 40030 is a payload satellite owned by DTU (DK) in SSO that was launched on Thu, 19 Jun 2014 UTC via a DNEPR launch vehicle from the Orenburg, Russia (OREN). Payload-class satellites include a variety of spacecraft equipped with specific instruments for various scientific and technological missions. These include communications satellites like Starlink; space stations such as the ISS; scientific satellites like the Hubble; Earth observation satellites from companies like Planet Labs, Umbra, and HawkEye 360; GPS; miniature CubeSats for education and research; and military/defense satellites.

Loading next visibility...
Identifier
40030, 2014-033W
Orbit
SSO
Country
Flag of DKDK / DEN
Related business
Manufacturer
DTU
Mission
Operational Amateur Communications
Bus & Motor
CUBESAT 1U, Unknown motor
Mass
1.333 kg wet, 1.333 kg dry
Launch date (UTC)
2014-06-19 (12 years ago)
Launch vehicle
DNEPR
Launch site
Orenburg, Russia (OREN)
Object type
Payload
Rocket body
Debris
Shape & HBR
Box, 0.1 m
Radar Cross Section
0.015 m², Medium (>0.1 m² and < 1m²)

Expand to show TLE details & history
Last TLE update: 2 days ago

TLE from 2 days ago
0 DTUSAT 2
1 40030U 14033W   26170.94581646  .00005960  00000-0  32260-3 0  9993
2 40030  98.0865 168.8476 0006937 214.2385 145.8399 15.15045561653102
Epoch: 2026-06-19T22:41Z
TLE epoch observation values (Epoch: 2026-06-19T22:41:58.542Z)
Latitude
-0°
Longitude
-79.81383°
Altitude
527.866 km
Speed
7.597 km/s
True Right ascension
11h 15m 23s
True Declination
0° 00' 00"
Sunlit
Object was in daylight at epoch
Visualization orbit readout
Latitude
Unknown
Longitude
Unknown
Altitude
Unknown
Speed
Unknown
Apparent Right ascension
Unknown
Apparent Declination
Unknown
Sunlit
N/A
Visualization observer readout
Local Sidereal Time
21:41:54
Azimuth
Unknown
Elevation
Unknown
Doppler factor
Unknown
Orbital elements
Apogee altitude
522.627 km
Perigee altitude
513.059 km
Semi-major axis
6,895.98 km
Eccentricity
0.00069
Inclination
98.0865°
RAAN
168.8476°
Arg. of periapsis
214.2385°
True anomaly
145.8845°
Mean anomaly
145.8399°
Eccentric anomaly
145.8622°
Mean motion
3.79009 °/min
Orbital period
94.98 mins
BSTAR
0.0003226
Loading maneuver chart data...
Computing Atmospheric mass density...
Loading historical data...
Loading historical data...
Loading historical data...
Loading historical data...
Loading historical data...
Loading historical data...
Loading historical data...

Documentation

Showing up to 5 results
|